Asheville, NC

7:32 PM EDT on May 22, 2017 (GMT -0400)
Asheville Regional

Weather History for KAVL - October, 2012

Change the Weather History Date:

Saturday, October 6, 2012

  Actual Average Record
Temperature  
Mean Temperature 62 °F 59 °F  
Max Temperature 73 °F 71 °F 90 °F (1941)
Min Temperature 50 °F 48 °F 33 °F (1970)
Degree Days  
Heating Degree Days 3 6  
Month to date heating degree days 11 33  
Since 1 July heating degree days 37 90  
Cooling Degree Days 0 1  
Month to date cooling degree days 4 6  
Year to date cooling degree days 1022 858  
Growing Degree Days 12 (Base 50)    
Moisture  
Dew Point 52 °F    
Average Humidity 79    
Maximum Humidity 100    
Minimum Humidity 57    
Precipitation  
Precipitation 0.00 in 0.10 in 1.39 in (1934)
Month to date precipitation 2.84 0.63  
Year to date precipitation 38.26 36.05  
Snow  
Snow 0.00 in 0.00 in 0.00 in ()
Month to date snowfall 0.0 0.0  
Since 1 July snowfall 0.0 0.0  
Since 1 September snowfall 0.0 0.0  
Snow Depth 0.00 in    
Sea Level Pressure  
Sea Level Pressure 30.01 in    
Wind  
Wind Speed 8 mph (NNW)    
Max Wind Speed 20 mph    
Max Gust Speed 24 mph    
Visibility 5 miles    
Events Fog    
T = Trace of Precipitation, MM = Missing Value Source: NWS Daily Summary

Daily Weather History Graph

Daily Weather History Graph

Search for Another Location

Airport or City:

Trip Planner

Search our weather history database for the weather conditions in past years. The results will help you decide how hot, cold, wet, or windy it might be!

Date:

Astronomy

Oct. 06, 2012 Rise Set
Actual Time 7:29 AM EDT 7:06 PM EDT
Civil Twilight 7:03 AM EDT 7:31 PM EDT
Nautical Twilight 6:34 AM EDT 8:01 PM EDT
Astronomical Twilight 6:04 AM EDT 8:30 PM EDT
Moon 11:30 PM EDT (10/6) 1:13 PM EDT (10/6)
Length of Visible Light 12h 27m
Length of Day
11h 36m
Waning Gibbous, 65% of the Moon is Illuminated
Oct 6
Waning Gibbous
Oct 8
Last Quarter
Oct 15
New
Oct 21
First Quarter
Oct 29
Full

Hourly Weather History & Observations

Time (EDT) Temp. Dew Point Humidity Pressure Visibility Wind Dir Wind Speed Gust Speed Precip Events Conditions
12:54 AM 55.0 °F 53.1 °F 93% 30.05 in 8.0 mi Calm Calm - N/A   Clear
1:54 AM 54.0 °F 52.0 °F 93% 30.03 in 8.0 mi SW 3.5 mph - N/A   Clear
2:54 AM 53.1 °F 52.0 °F 96% 30.01 in 6.0 mi Calm Calm - N/A   Partly Cloudy
3:44 AM 51.8 °F 50.0 °F 94% 30.03 in 1.8 mi Calm Calm - N/A   Scattered Clouds
3:54 AM 51.1 °F 50.0 °F 96% 29.98 in 4.0 mi SW 3.5 mph - N/A   Partly Cloudy
3:57 AM 51.8 °F 50.0 °F 94% 30.03 in 1.8 mi WSW 3.5 mph - N/A   Scattered Clouds
3:59 AM 51.8 °F 50.0 °F 94% 30.03 in 1.0 mi Calm Calm - N/A   Mist
4:04 AM 51.8 °F 50.0 °F 94% 30.03 in 0.5 mi Calm Calm - N/A Fog Fog
4:26 AM 51.8 °F 50.0 °F 94% 30.02 in 1.0 mi Calm Calm - N/A   Mist
4:28 AM 51.8 °F 50.0 °F 94% 30.02 in 1.5 mi Calm Calm - N/A   Scattered Clouds
4:31 AM 51.8 °F 50.0 °F 94% 30.02 in 3.0 mi Calm Calm - N/A   Scattered Clouds
4:41 AM 51.8 °F 50.0 °F 94% 30.02 in 1.8 mi Calm Calm - N/A   Partly Cloudy
4:45 AM 51.8 °F 50.0 °F 94% 30.02 in 2.0 mi Calm Calm - N/A   Clear
4:54 AM 51.1 °F 50.0 °F 96% 29.97 in 4.0 mi Calm Calm - N/A   Clear
4:59 AM 51.8 °F 50.0 °F 94% 30.03 in 2.5 mi Calm Calm - N/A   Partly Cloudy
5:09 AM 50.0 °F 48.2 °F 94% 30.03 in 6.0 mi NW 5.8 mph - N/A   Partly Cloudy
5:27 AM 51.8 °F 50.0 °F 94% 30.03 in 4.0 mi NW 5.8 mph - N/A   Mostly Cloudy
5:30 AM 50.0 °F 50.0 °F 100% 30.03 in 1.8 mi NNW 6.9 mph - N/A   Mostly Cloudy
5:36 AM 51.8 °F 50.0 °F 94% 30.03 in 0.8 mi NNW 9.2 mph - N/A   Mostly Cloudy
5:47 AM 51.8 °F 50.0 °F 94% 30.04 in 0.2 mi NNW 5.8 mph - N/A Fog Fog
5:54 AM 52.0 °F 51.1 °F 97% 29.99 in 0.2 mi Calm Calm - N/A Fog Fog
5:57 AM 51.8 °F 51.8 °F 100% 30.04 in 0.5 mi Calm Calm - N/A Fog Fog
6:09 AM 51.8 °F 51.8 °F 100% 30.04 in 0.2 mi West 3.5 mph - N/A Fog Fog
6:28 AM 51.8 °F 51.8 °F 100% 30.05 in 0.2 mi North 4.6 mph - N/A Fog Fog
6:33 AM 53.6 °F 51.8 °F 94% 30.05 in 1.0 mi NW 4.6 mph - N/A   Mist
6:35 AM 51.8 °F 51.8 °F 100% 30.05 in 2.0 mi NNW 5.8 mph - N/A   Overcast
6:43 AM 51.8 °F 51.8 °F 100% 30.05 in 1.0 mi NNW 5.8 mph - N/A   Mist
6:51 AM 53.6 °F 51.8 °F 94% 30.05 in 1.0 mi NW 3.5 mph - N/A   Mist
6:54 AM 52.0 °F 51.1 °F 97% 30.01 in 0.5 mi Calm Calm - N/A Fog Fog
7:07 AM 51.8 °F 51.8 °F 100% 30.06 in 0.5 mi Calm Calm - N/A Fog Fog
7:54 AM 52.0 °F 52.0 °F 100% 30.02 in 0.5 mi North 4.6 mph - N/A Fog Fog
8:17 AM 53.6 °F 51.8 °F 94% 30.06 in 9.0 mi North 10.4 mph - N/A Fog Fog
8:54 AM 55.9 °F 53.1 °F 90% 30.00 in 7.0 mi Calm Calm - N/A Fog Fog
9:54 AM 61.0 °F 57.0 °F 87% 29.98 in 10.0 mi Calm Calm - N/A   Clear
10:54 AM 66.0 °F 59.0 °F 78% 29.97 in 10.0 mi Variable 3.5 mph - N/A   Clear
11:54 AM 71.1 °F 55.0 °F 57% 29.97 in 10.0 mi NNW 6.9 mph - N/A   Partly Cloudy
12:54 PM 72.0 °F 55.9 °F 57% 29.97 in 10.0 mi North 12.7 mph 20.7 mph N/A   Clear
1:54 PM 73.0 °F 57.0 °F 57% 29.95 in 10.0 mi NNW 16.1 mph 20.7 mph N/A   Clear
2:54 PM 71.1 °F 59.0 °F 66% 29.94 in 10.0 mi NNW 13.8 mph - N/A   Scattered Clouds
3:54 PM 71.1 °F 57.9 °F 63% 29.94 in 10.0 mi North 9.2 mph - N/A   Scattered Clouds
4:54 PM 64.9 °F 57.0 °F 75% 29.94 in 10.0 mi NNW 9.2 mph - N/A   Overcast
5:54 PM 63.0 °F 55.0 °F 75% 29.96 in 10.0 mi NNW 12.7 mph - N/A   Mostly Cloudy
6:54 PM 60.1 °F 53.1 °F 78% 29.98 in 10.0 mi NNW 17.3 mph 23.0 mph N/A   Mostly Cloudy
7:54 PM 57.9 °F 52.0 °F 81% 30.00 in 10.0 mi NNW 15.0 mph - N/A   Clear
8:54 PM 57.0 °F 51.1 °F 81% 30.00 in 10.0 mi NNW 15.0 mph - N/A   Partly Cloudy
9:06 PM 57.2 °F 51.8 °F 82% 30.04 in 10.0 mi NNW 16.1 mph 23.0 mph N/A   Mostly Cloudy
9:54 PM 55.9 °F 51.1 °F 84% 30.01 in 10.0 mi North 10.4 mph - N/A   Scattered Clouds
10:54 PM 55.0 °F 50.0 °F 83% 30.02 in 10.0 mi North 12.7 mph 21.9 mph N/A   Mostly Cloudy
11:06 PM 55.4 °F 50.0 °F 82% 30.06 in 10.0 mi North 10.4 mph - N/A   Scattered Clouds
11:54 PM 55.0 °F 50.0 °F 83% 30.00 in 10.0 mi North 8.1 mph - N/A   Mostly Cloudy